Other Public Products
Issued by NWS Charleston, SC

Current Version | Previous Version | Graphics & Text | Print | Product List | Glossary On
Versions: 1 2 3 4 5 6 7 8 9 10 11 12 13 14 15 16 17 18 19 20 21 22 23 24 25 26 27 28 29 30 31 32 33 34 35 36 37 38 39 40 41 42 43 44 45 46 47 48 49 50
117
FPUS82 KCHS 190038
OPUCHS

TEST...KCHS/KSAV Gateway Observations...TEST
National Weather Service Charleston SC
800 PM EDT MON SEP 18 2017

NOTE: "fair" indicates few or no clouds below 12,000 feet with no
significant weather and/or obstructions to visibility.

SCZ050-WAZ558-NCZ071-TXZ119-213-PAZ071-DCZ001-FLZ074-172-MI076-
NYZ176-178-MAZ016-IL014-TNZ027-NJZ106-GAZ044-MD014-190100-

...Gateway Observations for Charleston International...

CITY           SKY/WX    TMP DP  RH WIND       PRES   REMARKS
Chas Airport   PTCLDY    77  71  82 SE6       29.95S
6HR MIN TEMP:  77; 6HR MAX TEMP:  87;

Seattle        LGT RAIN  55  49  80 SE10      29.75F
6HR MIN TEMP:  55; 6HR MAX TEMP:  62; 6HR PCP:  0.01;

Charlotte      PTCLDY    76  67  73 N3        30.00S
6HR MIN TEMP:  76; 6HR MAX TEMP:  86;

Dallas DFW     PTCLDY    91  64  40 SE7       29.88S HX  92
6HR MIN TEMP:  89; 6HR MAX TEMP:  95;

Dallas Love    PTCLDY    92  62  36 SE7       29.88S HX  92
6HR MIN TEMP:  90; 6HR MAX TEMP:  94;

Philladelphia  MOCLDY    72  65  78 NE8       30.06R
6HR MIN TEMP:  72; 6HR MAX TEMP:  81;

Wash National  PTCLDY    73  68  84 NE10      30.05R
6HR MIN TEMP:  73; 6HR MAX TEMP:  77;

Baltimore      PTCLDY    70  68  93 NW5       30.04R
6HR MIN TEMP:  70; 6HR MAX TEMP:  74; 6HR PCP:  0.02;

Miami          MOCLDY    88  68  51 W3        29.88R HX  91
6HR MIN TEMP:  88; 6HR MAX TEMP:  91;

Detroit        CLOUDY    68  63  84 E7        30.05S
6HR MIN TEMP:  68; 6HR MAX TEMP:  75; 6HR PCP: TRACE;

Newark         MOCLDY    73  66  78 NE8       30.08S
6HR MIN TEMP:  73; 6HR MAX TEMP:  75;

Laguardia      MOCLDY    72  67  84 E12       30.09R
6HR MIN TEMP:  71; 6HR MAX TEMP:  74;

J F K          CLOUDY    72  66  81 NE9       30.10R
6HR MIN TEMP:  71; 6HR MAX TEMP:  77;

Boston Logan   CLOUDY    65  64  97 NE9       30.17R FOG
6HR MIN TEMP:  65; 6HR MAX TEMP:  67; 6HR PCP: TRACE;

Ft. Lauderdale MOCLDY    81  74  79 NE6       29.88R
6HR MIN TEMP:  81; 6HR MAX TEMP:  90;

Chicago O`Hare CLOUDY    68  57  68 NE9       30.01S
6HR MIN TEMP:  68; 6HR MAX TEMP:  77;

Chicago Midway MOCLDY    69  56  62 E10       30.01S
6HR MIN TEMP:  69; 6HR MAX TEMP:  75;

Houston Bush   TSTM      77  74  90 SE8       29.96S
6HR MIN TEMP:  76; 6HR MAX TEMP:  87; 6HR PCP:  0.31;

Houston Hobby  TSTM      75  71  87 N15       30.00R FOG
6HR MIN TEMP:  78; 6HR MAX TEMP:  93; 6HR PCP:  0.22;

Nashville      PTCLDY    83  65  54 NE5       30.01R
6HR MIN TEMP:  83; 6HR MAX TEMP:  89;

Atlanta        PTCLDY    80  61  52 NW7       30.01R
6HR MIN TEMP:  80; 6HR MAX TEMP:  88;


$$

GAZ044-118-TXZ119-213-NCZ071-DCZ001-MDZ014-506-PAZ021-071-NJZ106-
NYZ176-178-MAZ106-OHZ011-021-055-MIZ076-KYZ091-ILZ014-INZ047-
MNZ060-ONZ431-190100-

...Gateway Observations for Savannah International...

CITY           SKY/WX    TMP DP  RH WIND       PRES   REMARKS
Savannah Arpt  PTCLDY    82  66  58 NE3       29.96R
6HR MIN TEMP:  82; 6HR MAX TEMP:  90;

Atlanta        PTCLDY    80  61  52 NW7       30.01R
6HR MIN TEMP:  80; 6HR MAX TEMP:  88;

Charlotte      PTCLDY    76  67  73 N3        30.00S
6HR MIN TEMP:  76; 6HR MAX TEMP:  86;

Dallas DFW     PTCLDY    91  64  40 SE7       29.88S HX  92
6HR MIN TEMP:  89; 6HR MAX TEMP:  95;

Houston Bush   TSTM      77  74  90 SE8       29.96S
6HR MIN TEMP:  76; 6HR MAX TEMP:  87; 6HR PCP:  0.31;

Wash National  PTCLDY    73  68  84 NE10      30.05R
6HR MIN TEMP:  73; 6HR MAX TEMP:  77;

Wash Dulles    MOCLDY    72  67  84 NE9       30.04R
6HR MIN TEMP:  72; 6HR MAX TEMP:  80;

Baltimore      PTCLDY    70  68  93 NW5       30.04R
6HR MIN TEMP:  70; 6HR MAX TEMP:  74; 6HR PCP:  0.02;

Philadelphia   MOCLDY    72  65  78 NE8       30.06R
6HR MIN TEMP:  72; 6HR MAX TEMP:  81;

Newark         MOCLDY    73  66  78 NE8       30.08S
6HR MIN TEMP:  73; 6HR MAX TEMP:  75;

Laguardia      MOCLDY    72  67  84 E12       30.09R
6HR MIN TEMP:  71; 6HR MAX TEMP:  74;

J F K          CLOUDY    72  66  81 NE9       30.10R
6HR MIN TEMP:  71; 6HR MAX TEMP:  77;

Boston         CLOUDY    65  64  97 NE9       30.17R FOG
6HR MIN TEMP:  65; 6HR MAX TEMP:  67; 6HR PCP: TRACE;

Pittsburg      PTCLDY    78  62  57 CALM      30.04S
6HR MIN TEMP:  78; 6HR MAX TEMP:  83;

Akron          PTCLDY    77  60  55 SE5       30.04S
6HR MIN TEMP:  77; 6HR MAX TEMP:  84;

Cleveland      MOCLDY    76  64  66 N6        30.05S
6HR MIN TEMP:  76; 6HR MAX TEMP:  88;

Cincinnati     CLOUDY    73  72  96 SE3       30.02R
6HR MIN TEMP:  73; 6HR MAX TEMP:  84;

Columbus       CLOUDY    72  67  84 SE3       30.02R
Detroit        CLOUDY    68  63  84 E7        30.05S
6HR MIN TEMP:  68; 6HR MAX TEMP:  75; 6HR PCP: TRACE;

Chicago O`Hare CLOUDY    68  57  68 NE9       30.01S
6HR MIN TEMP:  68; 6HR MAX TEMP:  77;

Minneapolis    CLOUDY    57  55  93 SE12      29.96F
6HR MIN TEMP:  55; 6HR MAX TEMP:  58; 6HR PCP:  0.20;

Indianapolis   TSTM      73  69  87 SE6       29.99R FOG
6HR MIN TEMP:  73; 6HR MAX TEMP:  84; 6HR PCP:  0.01;

Toronto Canada MOCLDY    72  66  83 N10       30.04R

$$




USA.gov is the U.S. government's official web portal to all federal, state and local government web resources and services.